Location: Moscow
(55.7500°N, 37.5830°E)
Time: 05:07:34
(UTC+03:00)

Vanguard 1 Rocket - Pass Details

Date: 06 December 2021
Orbit: 651 x 4225 km, 34.3° (Epoch: 26 January)

Event Time Altitude Azimuth Distance (km) Brightness Sun altitude
Exits shadow 04:36:13 26° 206° (SSW) 3,874 10.2 -33.0°
Maximum altitude 04:41:54 33° 173° (S) 4,062 10.6 -32.2°
Drops below altitude 10° 04:59:33 10° 120° (ESE) 7,033 12.5 -29.8°
Sets 05:06:33 0° 113° (ESE) 8,346 13.3 -28.8°
